Location: Marcé
(47.5801°N, 0.3280°W)
Time: 14:57:49
(UTC+01:00)

Vanguard 3 - Pass Details

Date: 11 December 2021
Orbit: 508 x 3260 km, 33.3° (Epoch: 20 January)

Event Time Altitude Azimuth Distance (km) Brightness Sun altitude
Rises 03:03:50 0° 234° (SW) 6,228 - -54.4°
Reaches altitude 10° 03:07:48 10° 228° (SW) 5,505 - -53.8°
Maximum altitude 03:24:16 46° 163° (SSE) 3,939 - -51.4°
Exits shadow 03:25:30 46° 155° (SSE) 3,964 10.3 -51.2°
Drops below altitude 10° 03:41:54 10° 99° (E) 5,877 11.9 -48.7°
Sets 03:46:17 0° 94° (E) 6,663 12.4 -48.0°
